Change the Weather History Date:

Friday, June 13, 2014

  Actual Average Record
Temperature  
Mean Temperature 55 °F -  
Max Temperature 69 °F 78 °F 96 °F (1987)
Min Temperature 41 °F 49 °F 34 °F (1969)
Degree Days  
Heating Degree Days 10    
Growing Degree Days 5 (Base 50)    
Moisture  
Dew Point 44 °F    
Average Humidity 66    
Maximum Humidity 100    
Minimum Humidity 35    
Precipitation  
Precipitation 0.00 in - - ()
Sea Level Pressure  
Sea Level Pressure 29.99 in    
Wind  
Wind Speed 1 mph (SSE)    
Max Wind Speed 6 mph    
Max Gust Speed -    
Visibility 10 miles    
Events      
Averages and records for this station are not official NWS values.
T = Trace of Precipitation, MM = Missing Value Source: NWS Daily Summary

Daily Weather History Graph

Daily Weather History Graph

Search for Another Location

Airport or City:

Trip Planner

Search our weather history database for the weather conditions in past years. The results will help you decide how hot, cold, wet, or windy it might be!

Date:

Astronomy

Jun. 13, 2014 Rise Set
Actual Time 5:22 AM CDT 9:04 PM CDT
Civil Twilight 4:43 AM CDT 9:42 PM CDT
Nautical Twilight 3:52 AM CDT 10:34 PM CDT
Astronomical Twilight 2:42 AM CDT 11:44 PM CDT
Moon 9:30 PM CDT (6/13) 6:06 AM CDT (6/13)
Length of Visible Light 16h 58m
Length of Day
15h 42m
Full, 100% of the Moon is Illuminated
Jun 13
Full
Jun 19
Last Quarter
Jun 27
New
Jul 5
First Quarter
Jul 12
Full

Hourly Weather History & Observations

Time (CDT) Temp. Windchill Dew Point Humidity Pressure Visibility Wind Dir Wind Speed Gust Speed Precip Events Conditions
12:14 AM 44.6 °F - 42.8 °F 93% 29.98 in 10.0 mi Calm Calm - N/A   Clear
12:34 AM 44.6 °F - 42.8 °F 93% 29.98 in 10.0 mi Calm Calm - N/A   Clear
12:54 AM 44.6 °F - 42.8 °F 93% 29.98 in 10.0 mi Calm Calm - N/A   Clear
1:14 AM 44.6 °F - 42.8 °F 93% 29.98 in 10.0 mi Calm Calm - N/A   Clear
1:34 AM 44.6 °F - 42.8 °F 93% 29.98 in 10.0 mi Calm Calm - N/A   Clear
1:54 AM 44.6 °F - 42.8 °F 93% 29.98 in 10.0 mi Calm Calm - N/A   Clear
2:14 AM 44.6 °F - 42.8 °F 93% 29.98 in 10.0 mi Calm Calm - N/A   Clear
2:34 AM 44.6 °F - 42.8 °F 93% 29.98 in 10.0 mi Calm Calm - N/A   Clear
2:54 AM 44.6 °F - 41.0 °F 87% 29.99 in 10.0 mi Calm Calm - N/A   Clear
3:14 AM 44.6 °F - 41.0 °F 87% 29.99 in 10.0 mi Calm Calm - N/A   Clear
3:34 AM 44.6 °F - 41.0 °F 87% 29.99 in 10.0 mi Calm Calm - N/A   Clear
3:54 AM 42.8 °F - 39.2 °F 87% 30.00 in 10.0 mi Calm Calm - N/A   Clear
4:14 AM 42.8 °F 41.1 °F 41.0 °F 93% 30.00 in 10.0 mi ENE 3.5 mph - N/A   Clear
4:34 AM 42.8 °F - 39.2 °F 87% 30.01 in 10.0 mi Calm Calm - N/A   Clear
4:54 AM 42.8 °F - 39.2 °F 87% 30.02 in 10.0 mi Calm Calm - N/A   Clear
5:14 AM 41.0 °F - 37.4 °F 87% 30.02 in 10.0 mi Calm Calm - N/A   Clear
5:34 AM 41.0 °F - 39.2 °F 93% 30.02 in 10.0 mi Calm Calm - N/A   Clear
5:54 AM 41.0 °F - 39.2 °F 93% 30.03 in 10.0 mi Calm Calm - N/A   Clear
6:14 AM 44.6 °F - 42.8 °F 93% 30.04 in 10.0 mi Calm Calm - N/A   Clear
6:34 AM 44.6 °F - 44.6 °F 100% 30.04 in 10.0 mi Calm Calm - N/A   Clear
6:54 AM 44.6 °F - 42.8 °F 93% 30.04 in 10.0 mi Calm Calm - N/A   Clear
7:14 AM 48.2 °F - 44.6 °F 87% 30.04 in 7.0 mi Calm Calm - N/A   Clear
7:34 AM 50.0 °F - 44.6 °F 82% 30.04 in 10.0 mi Calm Calm - N/A   Clear
7:54 AM 51.8 °F - 44.6 °F 76% 30.04 in 10.0 mi Calm Calm - N/A   Clear
8:14 AM 53.6 °F - 46.4 °F 77% 30.04 in 10.0 mi Calm Calm - N/A   Clear
8:34 AM 55.4 °F - 46.4 °F 72% 30.04 in 10.0 mi Calm Calm - N/A   Clear
8:54 AM 55.4 °F - 46.4 °F 72% 30.05 in 10.0 mi Calm Calm - N/A   Clear
9:14 AM 59.0 °F - 46.4 °F 63% 30.05 in 10.0 mi Calm Calm - N/A   Clear
9:34 AM 59.0 °F - 48.2 °F 67% 30.05 in 10.0 mi Calm Calm - N/A   Clear
10:14 AM 62.6 °F - 48.2 °F 59% 30.04 in 10.0 mi Calm Calm - N/A   Clear
10:34 AM 64.4 °F - 50.0 °F 59% 30.04 in 10.0 mi Calm Calm - N/A   Clear
10:54 AM 64.4 °F - 46.4 °F 52% 30.03 in 10.0 mi Calm Calm - N/A   Clear
11:14 AM 64.4 °F - 44.6 °F 49% 30.03 in 10.0 mi Calm Calm - N/A   Clear
11:34 AM 64.4 °F - 44.6 °F 49% 30.02 in 10.0 mi Calm Calm - N/A   Clear
12:14 PM 68.0 °F - 39.2 °F 35% 30.01 in 10.0 mi Calm Calm - N/A   Clear
12:34 PM 69.8 °F - 44.6 °F 40% 30.02 in 10.0 mi WNW 5.8 mph - N/A   Clear
12:54 PM 68.0 °F - 41.0 °F 37% 30.01 in 10.0 mi West 5.8 mph - N/A   Clear
1:14 PM 68.0 °F - 41.0 °F 37% 30.01 in 10.0 mi West 4.6 mph - N/A   Clear
1:34 PM 69.8 °F - 41.0 °F 35% 30.01 in 10.0 mi Calm Calm - N/A   Clear
1:54 PM 69.8 °F - 41.0 °F 35% 30.00 in 10.0 mi Calm Calm - N/A   Clear
2:14 PM 69.8 °F - 41.0 °F 35% 29.99 in 10.0 mi SW 5.8 mph - N/A   Clear
2:34 PM 69.8 °F - 41.0 °F 35% 29.99 in 10.0 mi WSW 5.8 mph - N/A   Clear
2:54 PM 69.8 °F - 42.8 °F 38% 29.99 in 10.0 mi WNW 4.6 mph - N/A   Clear
3:14 PM 69.8 °F - 42.8 °F 38% 29.99 in 7.0 mi West 4.6 mph - N/A   Clear
3:34 PM 69.8 °F - 41.0 °F 35% 29.99 in 10.0 mi South 4.6 mph - N/A   Clear
4:14 PM 69.8 °F - 44.6 °F 40% 29.98 in 10.0 mi West 4.6 mph - N/A   Clear
6:34 PM 69.8 °F - 42.8 °F 38% 29.94 in 10.0 mi Calm Calm - N/A   Clear
6:54 PM 68.0 °F - 42.8 °F 40% 29.94 in 10.0 mi Calm Calm - N/A   Clear
7:14 PM 68.0 °F - 46.4 °F 46% 29.94 in 10.0 mi Calm Calm - N/A   Clear
7:34 PM 64.4 °F - 46.4 °F 52% 29.93 in 10.0 mi Calm Calm - N/A   Clear
7:54 PM 64.4 °F - 46.4 °F 52% 29.92 in 10.0 mi Calm Calm - N/A   Clear
8:14 PM 64.4 °F - 50.0 °F 59% 29.92 in 10.0 mi Calm Calm - N/A   Clear
8:34 PM 64.4 °F - 50.0 °F 59% 29.92 in 10.0 mi Calm Calm - N/A   Clear
8:54 PM 62.6 °F - 50.0 °F 63% 29.92 in 10.0 mi Calm Calm - N/A   Clear
9:14 PM 60.8 °F - 50.0 °F 68% 29.93 in 10.0 mi Calm Calm - N/A   Clear
9:34 PM 59.0 °F - 50.0 °F 72% 29.92 in 10.0 mi ESE 3.5 mph - N/A   Clear
9:54 PM 60.8 °F - 48.2 °F 63% 29.93 in 10.0 mi ESE 5.8 mph - N/A   Scattered Clouds
10:14 PM 60.8 °F - 46.4 °F 59% 29.94 in 10.0 mi ESE 4.6 mph - N/A   Clear
10:34 PM 60.8 °F - 46.4 °F 59% 29.94 in 10.0 mi ESE 4.6 mph - N/A   Scattered Clouds
10:54 PM 60.8 °F - 46.4 °F 59% 29.93 in 10.0 mi ESE 5.8 mph - N/A   Scattered Clouds
11:14 PM 60.8 °F - 46.4 °F 59% 29.94 in 10.0 mi ESE 4.6 mph - N/A   Clear
11:34 PM 60.8 °F - 44.6 °F 55% 29.95 in 10.0 mi ESE 4.6 mph - N/A   Clear
11:54 PM 59.0 °F - 44.6 °F 59% 29.96 in 10.0 mi ESE 3.5 mph - N/A   Clear